St. Charles, IL

8:18 AM CDT on April 20, 2018 (GMT -0500)
Saint Charles County Smartt

Weather History for KSET - November, 2013

Change the Weather History Date:

Friday, November 8, 2013

  Actual Average (KSTL) Record (KSTL)
Temperature  
Mean Temperature 42 °F -  
Max Temperature 57 °F 57 °F 82 °F (2005)
Min Temperature 27 °F 38 °F 8 °F (1991)
Degree Days  
Heating Degree Days 23    
Moisture  
Dew Point 31 °F    
Average Humidity 67    
Maximum Humidity 96    
Minimum Humidity 33    
Precipitation  
Precipitation 0.00 in - - ()
Sea Level Pressure  
Sea Level Pressure 30.25 in    
Wind  
Wind Speed 5 mph (SSE)    
Max Wind Speed 20 mph    
Max Gust Speed -    
Visibility 9 miles    
Events      
Averages and records for this station are not official NWS values.
T = Trace of Precipitation, MM = Missing Value Source: NWS Daily Summary

Daily Weather History Graph

Daily Weather History Graph

Search for Another Location

Airport or City:

Astronomy

Nov. 08, 2013 Rise Set
Actual Time 6:36 AM CST 4:53 PM CST
Civil Twilight 6:08 AM CST 5:21 PM CST
Nautical Twilight 5:36 AM CST 5:53 PM CST
Astronomical Twilight 5:05 AM CST 6:24 PM CST
Moon 11:32 AM CST (11/8) 10:14 PM CST (11/8)
Length of Visible Light 11h 12m
Length of Day
10h 16m
Waxing Crescent, 33% of the Moon is Illuminated
Nov 8
Waxing Crescent
Nov 9
First Quarter
Nov 17
Full
Nov 25
Last Quarter
Dec 2
New

Hourly Weather History & Observations

Time (CST) Temp. Windchill Dew Point Humidity Pressure Visibility Wind Dir Wind Speed Gust Speed Precip Events Conditions
12:54 AM 34.0 °F - 30.0 °F 85% 30.35 in 10.0 mi Calm Calm - N/A   Clear
1:54 AM 33.1 °F 30.0 °F 28.9 °F 85% 30.35 in 10.0 mi WSW 3.5 mph - N/A   Clear
2:54 AM 30.0 °F - 27.0 °F 88% 30.35 in 10.0 mi Calm Calm - N/A   Clear
3:54 AM 30.0 °F - 27.0 °F 88% 30.37 in 10.0 mi Calm Calm - N/A   Clear
4:54 AM 28.0 °F 24.2 °F 26.1 °F 92% 30.37 in 10.0 mi SSE 3.5 mph - N/A   Clear
5:54 AM 28.0 °F - 26.1 °F 92% 30.36 in 10.0 mi Calm Calm - N/A   Clear
6:23 AM 27.0 °F 23.0 °F 26.1 °F 96% 30.35 in 1.5 mi NE 3.5 mph - N/A   Clear
6:34 AM 28.0 °F - 27.0 °F 96% 30.35 in 3.0 mi Calm Calm - N/A   Clear
6:54 AM 28.0 °F - 27.0 °F 96% 30.37 in 5.0 mi Calm Calm - N/A   Clear
7:54 AM 34.0 °F - 32.0 °F 92% 30.38 in 9.0 mi Calm Calm - N/A   Clear
8:54 AM 39.9 °F - 35.1 °F 83% 30.38 in 10.0 mi Calm Calm - N/A   Clear
9:54 AM 44.1 °F 40.8 °F 36.0 °F 73% 30.36 in 10.0 mi ESE 5.8 mph - N/A   Clear
10:54 AM 50.0 °F - 34.0 °F 54% 30.33 in 10.0 mi SE 10.4 mph - N/A   Clear
11:54 AM 54.0 °F - 30.9 °F 41% 30.29 in 10.0 mi SSE 17.3 mph - N/A   Clear
12:54 PM 55.0 °F - 32.0 °F 42% 30.25 in 10.0 mi South 11.5 mph - N/A   Clear
1:54 PM 57.0 °F - 28.0 °F 33% 30.20 in 10.0 mi SSE 15.0 mph - N/A   Clear
2:54 PM 57.0 °F - 28.9 °F 34% 30.16 in 10.0 mi SSE 19.6 mph - N/A   Clear
3:54 PM 57.0 °F - 33.1 °F 40% 30.14 in 10.0 mi SSE 16.1 mph - N/A   Clear
4:54 PM 53.1 °F - 33.1 °F 47% 30.12 in 10.0 mi SSE 12.7 mph - N/A   Clear
5:54 PM 50.0 °F - 34.0 °F 54% 30.10 in 10.0 mi SE 12.7 mph - N/A   Clear
6:54 PM 50.0 °F - 34.0 °F 54% 30.10 in 10.0 mi SSE 12.7 mph - N/A   Clear
7:54 PM 50.0 °F - 33.1 °F 52% 30.09 in 10.0 mi South 13.8 mph - N/A   Clear
8:54 PM 48.0 °F - 34.0 °F 58% 30.10 in 10.0 mi South 9.2 mph - N/A   Clear
9:54 PM 48.0 °F - 35.1 °F 61% 30.08 in 10.0 mi South 11.5 mph - N/A   Clear
10:54 PM 50.0 °F - 35.1 °F 57% 30.09 in 10.0 mi South 13.8 mph - N/A   Scattered Clouds
11:54 PM 48.9 °F - 35.1 °F 59% 30.06 in 10.0 mi SSW 12.7 mph - N/A   Clear